KD7RJ Weather Reports


time (UTC)temp
C
wind
direction
speed
KPH
gust
KPH
rain 1hr
cm
rain 24hr
cm
rain mn
cm
humidity
%
barometer
mb
20260503220014 35 36 6.4 14.5 0.00 0.03 0.03 21 1007.7
20260503214551 35 26 0.0 9.7 0.00 0.03 0.03 24 1007.9
20260503213046 34 355 1.6 11.3 0.00 0.03 0.03 24 1008.1
20260503211536 34 70 1.6 12.9 0.00 0.03 0.03 26 1008.3
20260503210023 33 33 1.6 14.5 0.00 0.03 0.03 26 1008.4
20260503204501 32 31 0.0 9.7 0.00 0.03 0.03 27 1008.6
20260503203058 31 40 1.6 14.5 0.00 0.03 0.03 29 1008.8
20260503201536 31 46 3.2 12.9 0.00 0.03 0.03 31 1009.0
20260503200033 30 52 4.8 11.3 0.00 0.03 0.03 33 1009.1
20260503194512 30 59 1.6 16.1 0.00 0.03 0.03 34 1009.3
20260503193027 29 39 1.6 12.9 0.00 0.03 0.03 34 1009.4
20260503191608 28 50 1.6 11.3 0.00 0.03 0.03 38 1009.6
20260503190050 27 54 3.2 11.3 0.00 0.03 0.03 38 1009.8
20260503184554 27 11 0.0 12.9 0.00 0.03 0.03 40 1010.0
20260503183020 26 33 3.2 11.3 0.00 0.03 0.03 44 1010.1
20260503181515 25 40 0.0 8.0 0.00 0.03 0.03 45 1010.3
20260503180056 25 22 3.2 12.9 0.00 0.03 0.03 49 1010.5
20260503174607 24 37 4.8 9.7 0.00 0.03 0.03 48 1010.6
20260503173031 23 30 3.2 12.9 0.00 0.03 0.03 49 1010.7
20260503171528 23 53 0.0 9.7 0.00 0.03 0.03 52 1010.7
20260503140109 13 69 0.0 0.0 0.00 0.03 0.03 88 1011.0
20260503081548 13 171 0.0 0.0 0.00 0.03 0.03 90 1011.6
20260503071600 15 171 0.0 0.0 0.00 0.03 0.03 87 1011.5
20260503054600 16 171 0.0 1.6 0.00 0.03 0.03 85 1011.2
20260503053041 16 171 3.2 6.4 0.00 0.03 0.03 84 1011.4
20260503051539 16 177 0.0 0.0 0.00 0.03 0.03 83 1011.9
20260503050020 16 177 0.0 0.0 0.00 0.03 0.03 82 1011.9
20260503044519 17 177 0.0 0.0 0.00 0.03 0.03 81 1011.8
20260503043108 17 177 0.0 0.0 0.00 0.03 0.03 80 1011.8
20260503041557 17 177 0.0 0.0 0.00 0.03 0.03 79 1012.0
20260503040036 17 177 0.0 0.0 0.00 0.03 0.03 77 1011.8
20260503034540 18 177 0.0 0.0 0.00 0.03 0.03 76 1011.7
20260503033022 18 177 0.0 0.0 0.00 0.03 0.03 74 1011.6
20260503031511 18 177 0.0 0.0 0.03 0.03 0.03 73 1011.7
20260503030050 19 173 0.0 8.0 0.03 0.03 0.03 71 1011.6
20260503024550 20 186 3.2 12.9 0.03 0.03 0.03 69 1011.4
20260503023024 21 165 6.4 20.9 0.03 0.03 0.03 64 1011.4
20260503021523 22 190 6.4 17.7 0.00 0.00 0.00 61 1011.2
20260503020005 23 296 0.0 0.0 0.00 0.00 0.00 60 1010.6
20260503014505 23 299 0.0 0.0 0.00 0.00 0.00 61 1010.4
20260503013052 23 299 0.0 0.0 0.00 0.00 0.00 60 1010.3
20260503011552 22 299 0.0 0.0 0.00 0.00 0.00 61 1010.4
20260503010051 22 299 0.0 1.6 0.00 0.00 0.00 62 1010.3
20260503004550 23 299 0.0 0.0 0.00 0.00 0.00 61 1010.4
20260503003055 22 299 0.0 0.0 0.00 0.00 0.00 64 1010.4
20260503001606 22 299 0.0 6.4 0.00 0.00 0.00 61 1010.5
20260503000050 23 349 0.0 6.4 0.00 0.00 0.00 60 1010.5
20260502234549 22 351 1.6 8.0 0.00 0.00 0.00 61 1010.6
20260502233028 22 258 1.6 8.0 0.00 0.00 0.00 60 1010.8
20260502231525 22 307 0.0 4.8 0.00 0.00 0.00 61 1010.9
20260502230006 22 309 3.2 11.3 0.00 0.00 0.00 62 1011.1
20260502224502 22 295 0.0 9.7 0.00 0.00 0.00 60 1011.4
20260502223042 23 43 0.0 4.8 0.00 0.00 0.00 59 1011.7
20260502221544 22 41 0.0 8.0 0.00 0.00 0.00 59 1011.9